[[{"header":{"parameterUnit":"m.s-1","parameterCategory":1,"la1":30.2991,"la2":30.254,"lo1":-89.0895,"lo2":-89.0444,"dy":0.0017,"dx":0.0017,"nx":28,"ny":28,"refTime":"2026-01-07T09:00:00:Z","depth":0,"parameterNumber":2,"parameterNumberName":"U-component_of_WINDS"},"data":[0,0,0,0,0,0,0,0,0,0,0,0,0,0,0,0,0,0,0,0,0,0,0,0,0,0,0,0,0,0,0,0,0,0,0,0,0,0,0,0,0,0,0,0,0,0,0,0,0,0,0,0,0,0,0,0,0,0,-3.4771,-3.4772,0,-3.4887,-3.4889,-3.489,-3.4911,-3.491,-3.4909,-3.4908,-3.5026,-3.503,-3.5034,0,0,0,0,0,0,0,0,0,0,0,0,0,-3.4567,-3.457,-3.4771,-3.4772,-3.4774,-3.4887,-3.4889,-3.489,-3.4911,-3.491,-3.4909,-3.4907,-3.5025,-3.5029,-3.5034,0,0,0,0,0,0,0,0,0,0,0,0,0,-3.4666,-3.4571,-3.4771,-3.4798,-3.4801,-3.4887,-3.4889,-3.4891,-3.4911,-3.491,-3.4908,-3.4907,-3.5023,-3.5029,-3.5035,-3.5101,0,0,-3.5053,-3.5056,0,0,0,0,0,0,0,0,-3.4661,-3.4674,-3.4792,-3.4796,-3.48,-3.4883,-3.486,-3.4961,-3.4912,-3.4869,-3.4908,-3.4906,-3.4979,-3.4989,-3.5014,-3.5106,-3.5112,-3.5054,-3.5058,-3.506,-3.5062,0,0,0,0,0,0,0,-3.4654,-3.4669,-3.4817,-3.4794,-3.4799,-3.4804,-3.4817,-3.4879,-3.4931,-3.4873,-3.4875,-3.4888,-3.4981,-3.5008,-3.5017,-3.5113,-3.5054,-3.5059,-3.5063,-3.5065,-3.5267,-3.5269,0,0,0,0,0,0,-3.4642,-3.4663,-3.4813,-3.482,-3.4725,-3.4809,-3.4823,-3.4858,-3.493,-3.494,-3.4889,-3.4889,-3.4998,-3.501,-3.5021,-3.5103,-3.506,-3.5066,-3.5069,-3.5265,-3.5267,-3.5269,0,0,0,0,0,0,-3.4637,-3.4655,-3.4809,-3.4742,-3.4762,-3.4814,-3.4853,-3.4861,-3.4888,-3.4943,-3.4952,-3.4907,-3.4998,-3.5013,-3.5081,-3.5108,-3.5068,-3.5074,-3.5263,-3.5266,-3.5268,-3.5268,0,0,0,0,0,0,-3.4631,-3.4653,-3.4679,-3.4743,-3.4766,-3.4867,-3.4855,-3.4864,-3.4898,-3.4899,-3.4962,-3.4971,-3.4998,-3.5072,-3.5087,-3.5115,-3.5079,-3.5261,-3.5264,-3.5267,-3.5266,-3.527,-3.5274,0,0,0,0,0,-3.4624,-3.4674,-3.468,-3.4698,-3.4799,-3.4868,-3.4881,-3.4911,-3.49,-3.4926,-3.4962,-3.4969,-3.5103,-3.5079,-3.5096,-3.5126,-3.5259,-3.5263,-3.5267,-3.5264,-3.5269,-3.5274,0,0,0,0,0,0,-3.4611,-3.4683,-3.469,-3.4762,-3.4809,-3.4871,-3.4905,-3.4916,-3.4966,-3.4964,-3.4999,-3.5014,-3.508,-3.5111,-3.5083,-3.5195,-3.518,-3.5188,-3.5172,-3.5178,-3.5182,-3.5172,-3.5084,0,0,0,0,0,-3.4616,-3.4667,-3.4727,-3.4785,-3.4808,-3.4852,-3.4884,-3.4903,-3.4953,-3.4972,-3.5013,-3.5061,-3.5114,-3.5148,-3.5199,-3.5271,-3.5285,-3.5301,-3.5305,-3.5308,-3.5313,-3.5354,-3.5361,-3.5282,-3.5282,-3.5282,0,0,-3.4628,-3.4674,-3.4703,-3.4783,-3.4822,-3.4873,-3.4869,-3.4923,-3.4962,-3.4981,-3.5048,-3.508,-3.5136,-3.5206,-3.5239,-3.5233,-3.5339,-3.5313,-3.5315,-3.5319,-3.5359,-3.5366,-3.5373,-3.5285,-3.5284,-3.5284,0,0,-3.4675,-3.4715,-3.4767,-3.4807,-3.4865,-3.4895,-3.4908,-3.4969,-3.4991,-3.506,-3.5075,-3.5122,-3.5212,-3.5251,-3.5283,-3.5347,-3.5356,-3.5363,-3.5384,-3.5423,-3.5429,-3.5435,-3.5457,-3.5465,-3.5369,-3.5369,-3.5369,0,-3.4682,-3.476,-3.4793,-3.4847,-3.4882,-3.4903,-3.4956,-3.4992,-3.5065,-3.5088,-3.5081,-3.5196,-3.5235,-3.5315,-3.5331,-3.5356,-3.5371,-3.5355,-3.5426,-3.5432,-3.5438,-3.5459,-3.5468,-3.537,-3.537,-3.537,-3.537,0,-3.4765,-3.482,-3.4855,-3.4925,-3.4964,-3.5017,-3.5058,-3.5094,-3.5111,-3.5141,-3.5211,-3.5259,-3.5321,-3.5342,-3.5358,-3.5425,-3.5419,-3.5419,-3.5405,-3.5445,-3.5466,-3.5475,-3.537,-3.537,-3.537,-3.537,0,0,-3.4805,-3.4894,-3.4906,-3.4939,-3.5006,-3.5048,-3.5104,-3.5165,-3.5194,-3.5245,-3.5291,-3.5368,-3.5369,-3.5405,-3.5426,-3.5461,-3.5508,-3.5456,-3.5458,-3.5463,-3.5584,-3.5583,-3.5592,-3.5515,-3.5517,-3.5518,-3.5579,0,-3.4859,-3.4958,-3.499,-3.5071,-3.5122,-3.5144,-3.5192,-3.5238,-3.5269,-3.5316,-3.535,-3.5404,-3.5401,-3.5423,-3.5458,-3.5495,-3.5533,-3.5491,-3.5558,-3.556,-3.5541,-3.5603,-3.5602,-3.5656,-3.5587,-3.5589,-3.559,0,-3.4935,-3.4987,-3.5074,-3.5136,-3.5158,-3.52,-3.526,-3.5305,-3.5359,-3.5379,-3.542,-3.5439,-3.5498,-3.5482,-3.5563,-3.5534,-3.5564,-3.5586,-3.5589,-3.5595,-3.5576,-3.5609,-3.5675,-3.5682,-3.5603,-3.5602,-3.5601,0,-3.4954,-3.5046,-3.511,-3.5137,-3.5211,-3.524,-3.5273,-3.5325,-3.536,-3.5412,-3.5435,-3.5494,-3.5525,-3.557,-3.5604,-3.559,-3.5682,-3.5669,-3.57,-3.5699,-3.5717,-3.5715,-3.5786,-3.5738,-3.5738,-3.5738,-3.5738,0,-3.5011,-3.5063,-3.5119,-3.5158,-3.5218,-3.5255,-3.5312,-3.5346,-3.5393,-3.5439,-3.5462,-3.5505,-3.5549,-3.5597,-3.5625,-3.5688,-3.5702,-3.572,-3.5726,-3.5717,-3.5714,-3.5735,-3.5732,-3.574,-3.574,-3.5739,-3.5739,0,-3.5041,-3.5081,-3.5152,-3.5217,-3.5235,-3.5275,-3.5331,-3.537,-3.5402,-3.5461,-3.5476,-3.5527,-3.5586,-3.5626,-3.5701,-3.5719,-3.5787,-3.5794,-3.5769,-3.5772,-3.58,-3.5796,-3.5886,-3.5899,-3.5843,-3.5844,-3.5844,0,-3.5073,-3.5114,-3.5183,-3.5216,-3.5249,-3.5301,-3.5337,-3.5376,-3.5413,-3.5478,-3.5509,-3.557,-3.562,-3.5713,-3.5756,-3.5814,-3.5821,-3.5849,-3.583,-3.582,-3.5821,-3.5817,-3.5821,-3.5851,-3.5852,-3.5852,-3.5852,0,-3.5126,-3.5144,-3.5196,-3.5255,-3.5297,-3.5346,-3.5394,-3.5419,-3.5467,-3.5507,-3.5568,-3.5607,-3.5684,-3.5744,-3.5806,-3.5839,-3.5854,-3.5858,-3.5868,-3.5858,-3.5842,-3.585,-3.5775,-3.5856,-3.5855,-3.5855,-3.5855,-3.5855,-3.5158,-3.5195,-3.525,-3.5307,-3.5347,-3.5392,-3.5432,-3.547,-3.5522,-3.5587,-3.5608,-3.5671,-3.5725,-3.581,-3.5845,-3.5895,-3.5892,-3.5907,-3.591,-3.5913,-3.5912,-3.5835,-3.5906,-3.5906,-3.5906,-3.5906,-3.5906,0,-3.5211,-3.5248,-3.53,-3.5367,-3.5412,-3.5423,-3.5477,-3.5514,-3.5569,-3.5618,-3.5668,-3.5738,-3.5796,-3.5845,-3.5906,-3.5937,-3.5945,-3.5951,-3.5948,-3.5956,-3.5911,-3.5896,-3.5943,-3.5943,-3.5943,-3.5943,-3.5943,-3.5943,-3.5244,-3.5307,-3.5332,-3.5417,-3.5454,-3.5515,-3.5546,-3.5587,-3.5627,-3.5704,-3.5753,-3.5785,-3.5835,-3.5899,-3.5953,-3.5966,-3.5987,-3.5992,-3.6006,-3.5963,-3.5959,-3.5955,-3.5941,-3.5996,-3.5996,-3.6046,-3.6047,-3.6047]},{"header":{"parameterUnit":"m.s-1","parameterCategory":1,"la1":30.2991,"la2":30.254,"lo1":-89.0895,"lo2":-89.0444,"dy":0.0017,"dx":0.0017,"nx":28,"ny":28,"refTime":"2026-01-07T09:00:00:Z","depth":0,"parameterNumber":3,"parameterNumberName":"V-component_of_WINDS"},"data":[0,0,0,0,0,0,0,0,0,0,0,0,0,0,0,0,0,0,0,0,0,0,0,0,0,0,0,0,0,0,0,0,0,0,0,0,0,0,0,0,0,0,0,0,0,0,0,0,0,0,0,0,0,0,0,0,0,0,4.1134,4.1135,0,4.1221,4.1222,4.1223,4.1209,4.1207,4.1206,4.1204,4.1293,4.1297,4.1301,0,0,0,0,0,0,0,0,0,0,0,0,0,4.0957,4.096,4.1134,4.1135,4.1136,4.1221,4.1223,4.1224,4.1209,4.1207,4.1206,4.1204,4.1292,4.1296,4.1301,0,0,0,0,0,0,0,0,0,0,0,0,0,4.1038,4.0961,4.1134,4.1139,4.1141,4.1221,4.1223,4.1224,4.121,4.1207,4.1205,4.1203,4.129,4.1296,4.1301,4.1382,0,0,4.1319,4.1321,0,0,0,0,0,0,0,0,4.1033,4.1044,4.1138,4.1139,4.1141,4.1202,4.1192,4.1277,4.121,4.1183,4.1204,4.1202,4.1265,4.1272,4.1294,4.1386,4.139,4.1319,4.1323,4.1325,4.1327,0,0,0,0,0,0,0,4.1028,4.1041,4.1169,4.1139,4.1141,4.1138,4.1147,4.1208,4.1236,4.1186,4.1185,4.1195,4.1265,4.1288,4.1296,4.1391,4.1319,4.1324,4.1328,4.133,4.1558,4.1561,0,0,0,0,0,0,4.102,4.1036,4.1166,4.1171,4.108,4.1143,4.1153,4.1185,4.1235,4.124,4.1197,4.1194,4.128,4.1289,4.1299,4.1399,4.1325,4.133,4.1334,4.1555,4.1559,4.1561,0,0,0,0,0,0,4.1017,4.1032,4.1162,4.1104,4.112,4.1149,4.1184,4.1188,4.1211,4.1244,4.1249,4.1216,4.1278,4.1291,4.1362,4.1402,4.1333,4.1338,4.1552,4.1556,4.156,4.1599,0,0,0,0,0,0,4.1012,4.1031,4.1061,4.1104,4.1123,4.1224,4.1186,4.1191,4.1221,4.1218,4.1262,4.1268,4.1277,4.1354,4.1368,4.1408,4.1342,4.1549,4.1554,4.1559,4.1594,4.1604,4.1612,0,0,0,0,0,4.1005,4.1067,4.1063,4.1078,4.1161,4.1226,4.1237,4.1247,4.1224,4.1255,4.1277,4.1266,4.1395,4.1361,4.1377,4.142,4.1546,4.1553,4.1558,4.159,4.1602,4.1612,0,0,0,0,0,0,4.1027,4.1073,4.1068,4.1146,4.1183,4.1224,4.1263,4.1259,4.1302,4.1298,4.1308,4.1319,4.1392,4.1413,4.1374,4.1502,4.1467,4.1477,4.1486,4.1498,4.1506,4.1501,4.1347,0,0,0,0,0,4.1041,4.109,4.1127,4.1192,4.1211,4.1234,4.1263,4.1268,4.1306,4.1321,4.1348,4.1386,4.1435,4.1467,4.1514,4.1597,4.1608,4.1634,4.1643,4.165,4.1659,4.1708,4.1721,4.1581,4.1581,4.1581,0,0,4.107,4.1101,4.1131,4.1198,4.1226,4.1278,4.1247,4.1302,4.1341,4.1329,4.14,4.1421,4.1464,4.1542,4.1578,4.1562,4.17,4.1658,4.1663,4.1668,4.1715,4.1728,4.174,4.1585,4.1585,4.1584,0,0,4.115,4.1177,4.1236,4.1267,4.1311,4.1327,4.1341,4.1384,4.1398,4.1469,4.1463,4.1509,4.1592,4.1625,4.1652,4.1747,4.1741,4.1762,4.1809,4.1857,4.1868,4.1878,4.1915,4.1928,4.177,4.177,4.177,0,4.118,4.1257,4.1267,4.1324,4.1355,4.1348,4.1409,4.1438,4.1495,4.1517,4.1498,4.1606,4.1633,4.1722,4.1745,4.1766,4.1785,4.1758,4.1865,4.1875,4.1885,4.192,4.1934,4.1773,4.1773,4.1772,4.1772,0,4.1295,4.1348,4.1391,4.1448,4.1484,4.1542,4.1562,4.1597,4.1599,4.1617,4.1691,4.1725,4.178,4.1801,4.1803,4.1891,4.188,4.1863,4.1828,4.19,4.1934,4.1948,4.1777,4.1776,4.1775,4.1774,0,0,4.139,4.1454,4.147,4.1498,4.1548,4.159,4.1649,4.1704,4.1735,4.1776,4.1827,4.19,4.1886,4.1917,4.1923,4.1964,4.2042,4.1943,4.1944,4.1963,4.2145,4.2159,4.2175,4.2037,4.204,4.2042,4.2142,0,4.1477,4.1582,4.1594,4.1689,4.174,4.1736,4.1788,4.1825,4.1844,4.1891,4.1912,4.1965,4.194,4.1959,4.2,4.2024,4.208,4.2017,4.2088,4.209,4.208,4.2192,4.2207,4.23,4.2155,4.2158,4.2159,0,4.1592,4.1639,4.1738,4.1785,4.1807,4.1853,4.1907,4.1951,4.1994,4.2005,4.2042,4.2043,4.2106,4.2068,4.2157,4.2114,4.2144,4.216,4.2164,4.2173,4.2131,4.2207,4.2329,4.2344,4.2179,4.2178,4.2176,0,4.1657,4.1743,4.1815,4.1838,4.1893,4.1927,4.1951,4.1992,4.2025,4.2072,4.2094,4.2147,4.2177,4.2218,4.2235,4.2205,4.2324,4.2286,4.2337,4.2337,4.2363,4.2362,4.2495,4.2378,4.2378,4.2377,4.2377,0,4.1754,4.1816,4.1845,4.1889,4.196,4.1973,4.2043,4.2066,4.2103,4.2153,4.2151,4.2198,4.2216,4.2266,4.2279,4.2353,4.2365,4.2377,4.238,4.2379,4.2378,4.24,4.2395,4.2381,4.238,4.238,4.2379,0,4.1838,4.1859,4.1938,4.1984,4.1998,4.2048,4.2088,4.2132,4.2151,4.2215,4.223,4.226,4.232,4.234,4.2412,4.2421,4.2507,4.2503,4.2493,4.2495,4.2545,4.2541,4.27,4.2723,4.2588,4.2589,4.259,0,4.19,4.1948,4.2001,4.2035,4.2061,4.2115,4.215,4.2165,4.2202,4.2256,4.2295,4.2354,4.2403,4.2498,4.2527,4.2583,4.2582,4.2634,4.259,4.2589,4.2587,4.2585,4.2592,4.2643,4.2644,4.2645,4.2646,0,4.2009,4.2018,4.2069,4.2124,4.2167,4.2211,4.2253,4.2281,4.2303,4.2345,4.2407,4.2444,4.2519,4.2579,4.2637,4.2663,4.266,4.2659,4.2675,4.2675,4.2669,4.2676,4.2519,4.2656,4.2655,4.2654,4.2654,4.2653,4.2087,4.2131,4.2176,4.2233,4.2267,4.2308,4.2353,4.2378,4.243,4.2493,4.2498,4.2566,4.261,4.2688,4.2717,4.277,4.2756,4.2777,4.2783,4.2789,4.2795,4.2658,4.278,4.278,4.278,4.278,4.2779,0,4.2199,4.2228,4.2281,4.2342,4.2388,4.238,4.2428,4.2467,4.2526,4.2568,4.2617,4.269,4.2749,4.2783,4.2842,4.2879,4.2879,4.2895,4.2893,4.29,4.2802,4.2785,4.2894,4.2894,4.2894,4.2894,4.2894,4.2894,4.2263,4.2339,4.2353,4.2446,4.2475,4.2542,4.257,4.2609,4.2643,4.2724,4.2774,4.2795,4.2835,4.2898,4.2953,4.2962,4.2985,4.3002,4.301,4.2918,4.2907,4.2895,4.2879,4.3006,4.3006,4.3104,4.3105,4.3105]}]]